Tracking 27122 objects as of 24-Mar-2023
HD Live streaming from Space Station
objects crossing your sky now

GUNSMOKE-J 4

Track GUNSMOKE-J 4 now!
10-day predictions


NORAD ID: 48878
Int'l Code: 2021-058H
Perigee: 451.2 km
Apogee: 506.3 km
Inclination: 60.7 °
Period: 94.0 minutes
Semi major axis: 6849 km
RCS: Unknown
Launch date: June 30, 2021
Source: United States (US)
Launch site: Pegasus launched from Western Range Air Space (WRAS)
Your satellite tracking list
Your tracking list is empty




NASA's NSSDC Master Catalog

Two Line Element Set (TLE):
1 48878U 21058H   23083.26789492  .00115705  00000-0  36454-2 0  9997
2 48878  60.6879  17.3620 0040239  48.8730 311.5823 15.31402606 96152
Source of the keplerian elements: AFSPC